Baitangkou, China

12:34 PM CST on November 16, 2018 (GMT +0800)
Binhai | | Change Station

Elev 7 ft 39.12 °N, 117.35 °E | Updated 34 minutes ago

Clear
Clear
45 °F
Feels Like 40 °F
N
9
Wind Variable Wind from NNW

Today
High -- | Low -- °F
--% Chance of Precip.
Yesterday
High -- | Low -- °F
Precip. -- in
Pressure 30.48 in
Visibility -9999.0 miles
Clouds
Windchill 40 °F
Dew Point 7 °F
Humidity 21%
Rainfall 0.00 in
Snow Depth Not available.
6:54 AM 4:56 PM
First Quarter, 55% visible
METAR ZBTJ 160400Z 34004MPS 310V010 CAVOK 07/M14 Q1032 NOSIG
Pressure 30.48 in
Visibility -9999.0 miles
Clouds
Windchill 40 °F
Dew Point 7 °F
Humidity 21%
Rainfall 0.00 in
Snow Depth Not available.
6:54 AM 4:56 PM
First Quarter, 55% visible
METAR ZBTJ 160400Z 34004MPS 310V010 CAVOK 07/M14 Q1032 NOSIG

Get Severe Weather Alerts

Thanks for signing up!

Be on the lookout for a verification email in your inbox.

You'll start receiving the daily forecast at 6 AM.

×

10-Day Weather Forecast

No radar image for this location.
×

Almanac

Astronomy

Nov. 16, 2018 Rise Set
Actual Time
Civil Twilight
Nautical Twilight
Astronomical Twilight
Moon
Length of Visible Light
Length of Day
Tomorrow will be .
, % of the Moon is Illuminated

Today's Extremes

Country Highs Country Lows

Community

WunderPhotos

Category 6

Welcome to Category 6. This is the collective home for Weather Underground's featured writeups by Dr. Jeff Masters (right), Bob Henson (left), Chris Burt, and other regular contributors.

Nearby

Air Quality

  Air Quality AQ Index Pollutant
Not available.

Snow Depth

Station Depth Elevation

Earthquake Activity

City Distance Mag. Time & Date
Minimum magnitude displayed is 2.5.

Coastal Water Temperatures

Place Temperature

Stations

Nearby Weather Stations

Station Location Temp. Windchill Dew Point Humidity Wind Precip. Elev Updated Type